Location: Canet
(43.3261°N, 5.3723°E)
Time: 03:24:48
(UTC+00:00)

ISS - Visible Passes

Search period start: 21 September 2021 00:00
Search period end: 01 October 2021 00:00
Orbit: 419 x 423 km, 51.6° (Epoch: 21 September)

Date Brightness Start Highest point End Pass type
(mag) Time Alt. Az. Time Alt. Az. Time Alt. Az.
21 Sep -3.2 18:06:55 10° WSW 18:10:15 60° NNW 18:13:36 10° NE visible
21 Sep -1.6 19:44:54 10° WNW 19:47:35 22° N 19:47:52 21° N visible
22 Sep -1.8 18:57:40 10° WNW 19:00:31 25° NNW 19:02:49 13° NE visible
22 Sep -0.2 20:35:34 10° NW 20:35:48 11° NW 20:35:48 11° NW visible
23 Sep -2.1 18:10:27 10° W 18:13:29 30° NNW 18:16:32 10° NE visible
23 Sep -1.4 19:48:31 10° NW 19:50:41 19° N 19:50:41 19° N visible
24 Sep -1.5 19:01:23 10° NW 19:03:57 20° N 19:05:33 15° NNE visible
25 Sep -1.7 18:14:10 10° WNW 18:16:51 21° N 18:19:32 10° NE visible
25 Sep -1.3 19:51:45 10° NW 19:53:22 19° NNW 19:53:22 19° NNW visible
26 Sep -1.8 19:04:48 10° NW 19:07:24 20° N 19:08:11 19° NNE visible
27 Sep -1.6 18:17:45 10° NW 18:20:18 19° N 18:22:50 10° NE visible
27 Sep -1.2 19:54:42 10° NW 19:56:00 19° NNW 19:56:00 19° NNW visible
28 Sep -2.3 19:07:51 10° NW 19:10:47 27° NNE 19:10:51 27° NNE visible
29 Sep -2.0 18:20:57 10° NW 18:23:42 23° NNE 18:25:42 14° ENE visible
29 Sep -1.0 19:57:36 10° NW 19:58:42 19° NW 19:58:42 19° NW visible
30 Sep -3.0 19:10:43 10° NW 19:13:36 45° N 19:13:36 45° N visible
